Date String (YYYY-MM-DD hh:mm:ss) UTC,Instrument flags,absolute air pressure of the measurement (hPa),sample flow rate (lpm),inlet stack bypass flow (lpm),air temperature of the measurement (°C),ambient temperature measured by the external sensor (°C),aerosol sample conditioner tube jacket temperature (°C),OPC LED temperature (°C),internal box temperature (°C),relative humidity of the measurement (%),span deviation,mass concentration of particles derived from Lorenz-Mie calculation of OPC scattering (μg/m³),mass concentration of particles derived from Lorenz-Mie calculation of OPC scattering (μg/m³),mass concentration of particles derived from Lorenz-Mie calculation of OPC scattering (μg/m³)
DateTimeUTC,F1_M11,P_M11,Q1_M11,Q2_M11,T1_M11,T2_M11,T3_M11,T4_M11,T5_M11,U1_M11,ZSPAN_M11,X2_M11,X0_M11,X1_M11
2023-08-27 13:00:00,SystemResetWarning,0835.6,5.00,000.00,029.5,027.6,000.0,037.9,030.6,34.3,-000.9,0006.82,0010.04,0006.45
2023-08-27 13:01:00,SystemResetWarning,0835.6,4.99,000.00,029.5,026.1,000.0,037.8,030.4,34.4,-000.8,0006.86,0010.11,0006.48
2023-08-27 13:02:00,SystemResetWarning,0835.6,5.00,000.00,029.4,024.5,000.0,037.6,030.1,34.5,-000.5,0006.90,0010.16,0006.52
2023-08-27 13:03:00,SystemResetWarning,0835.7,5.00,000.00,029.2,024.0,000.0,037.5,029.8,34.7,-000.4,0006.93,0010.18,0006.55
2023-08-27 13:04:00,SystemResetWarning,0835.5,5.00,000.00,029.1,024.2,000.0,037.5,029.6,35.3,-000.3,0007.02,0010.31,0006.62
2023-08-27 13:05:00,SystemResetWarning,0835.5,5.01,000.00,029.1,024.6,000.0,037.6,029.8,35.3,0000.0,0007.11,0010.49,0006.68
2023-08-27 13:06:00,SystemResetWarning,0835.5,5.01,000.00,029.4,025.1,000.0,037.6,030.0,34.9,-000.5,0007.17,0010.65,0006.74
2023-08-27 13:07:00,SystemResetWarning,0835.6,4.96,000.00,029.6,025.5,000.0,037.6,030.2,34.2,-000.7,0007.20,0010.59,0006.80
2023-08-27 13:08:00,SystemResetWarning,0835.6,5.02,000.00,029.7,025.8,000.0,037.6,030.2,34.0,-000.8,0007.22,0011.22,0006.85
2023-08-27 13:09:00,SystemResetWarning,0835.6,5.00,000.00,029.8,026.2,000.0,037.6,030.2,33.9,-000.9,0007.26,0011.52,0006.88
2023-08-27 13:10:00,SystemResetWarning,0835.6,5.00,000.00,029.9,026.4,000.0,037.7,030.3,33.7,-000.7,0007.30,0011.22,0006.92
2023-08-27 13:11:00,SystemResetWarning,0835.6,5.00,000.00,029.9,026.7,000.0,037.8,030.3,33.4,-000.5,0007.33,0011.19,0006.95
2023-08-27 13:12:00,SystemResetWarning,0835.6,5.00,000.00,029.9,026.8,000.0,037.8,030.3,33.1,-000.3,0007.34,0011.45,0006.98
2023-08-27 13:13:00,SystemResetWarning,0835.6,5.00,000.00,029.9,027.0,000.0,037.9,030.4,33.0,-000.3,0007.35,0011.53,0006.99
2023-08-27 13:14:00,SystemResetWarning,0835.6,4.99,000.00,029.9,027.1,000.0,038.0,030.4,33.0,-000.4,0007.37,0011.59,0006.99
2023-08-27 13:15:00,SystemResetWarning,0835.7,5.00,000.00,029.9,027.2,000.0,038.0,030.4,32.9,-000.4,0007.37,0011.59,0006.99
2023-08-27 13:16:00,SystemResetWarning,0835.6,5.00,000.00,029.9,027.3,000.0,038.0,030.5,32.9,-001.0,0007.35,0011.53,0006.98
2023-08-27 13:17:00,SystemResetWarning,0835.6,5.00,000.00,029.9,027.4,000.0,038.1,030.5,32.9,-001.3,0007.33,0011.39,0006.98
2023-08-27 13:18:00,SystemResetWarning,0835.8,5.00,000.00,029.9,027.5,000.0,038.1,030.5,33.2,-001.0,0007.37,0011.41,0006.98
2023-08-27 13:19:00,SystemResetWarning,0835.7,5.01,000.00,029.9,027.5,000.0,038.1,030.6,33.2,-000.8,0007.36,0011.14,0006.97
2023-08-27 13:20:00,SystemResetWarning,0835.7,5.01,000.00,029.9,027.6,000.0,038.2,030.6,33.4,-000.3,0007.38,0010.64,0007.00
2023-08-27 13:21:00,SystemResetWarning,0835.8,5.00,000.00,030.0,027.7,000.0,038.2,030.7,34.2,-000.2,0007.39,0010.57,0007.02
2023-08-27 13:22:00,SystemResetWarning,0835.8,4.99,000.00,030.0,027.7,000.0,038.2,030.7,35.0,-000.2,0007.40,0010.53,0007.05
2023-08-27 13:23:00,SystemResetWarning,0835.7,5.02,000.00,030.0,027.8,000.0,038.2,030.7,35.1,-000.5,0007.42,0010.33,0007.07
2023-08-27 13:24:00,SystemResetWarning,0835.8,4.96,000.00,030.2,027.8,000.0,038.3,030.8,35.0,-000.1,0007.43,0010.19,0007.11
2023-08-27 13:25:00,SystemResetWarning,0835.7,5.05,000.00,030.3,027.8,000.0,038.3,030.9,34.3,0000.0,0007.50,0010.22,0007.17
2023-08-27 13:26:00,SystemResetWarning,0835.8,4.96,000.00,030.4,027.3,000.0,038.2,030.9,33.9,0000.2,0007.54,0010.23,0007.24
2023-08-27 13:27:00,SystemResetWarning,0835.7,5.02,000.00,030.5,025.6,000.0,038.1,030.6,34.0,0000.6,0007.55,0010.20,0007.28
2023-08-27 13:28:00,SystemResetWarning,0835.7,5.01,000.00,030.4,024.5,000.0,038.0,030.3,34.2,0001.1,0007.58,0010.25,0007.32
2023-08-27 13:29:00,SystemResetWarning,0835.7,5.00,000.00,030.3,024.5,000.0,038.0,030.1,33.7,0001.0,0007.62,0010.27,0007.37
2023-08-27 13:30:00,SystemResetWarning,0835.7,5.00,000.00,030.1,024.8,000.0,038.1,030.0,34.0,0000.8,0007.66,0010.24,0007.42
2023-08-27 13:31:00,SystemResetWarning,0835.7,4.97,000.00,030.0,025.2,000.0,038.2,030.1,34.9,0000.6,0007.69,0010.11,0007.46
2023-08-27 13:32:00,SystemResetWarning,0835.7,5.04,000.00,030.0,025.6,000.0,038.2,030.2,34.5,0000.1,0007.75,0010.22,0007.48
2023-08-27 13:33:00,SystemResetWarning,0835.7,4.97,000.00,030.1,026.0,000.0,038.2,030.3,34.2,-000.2,0007.80,0010.28,0007.52
2023-08-27 13:34:00,SystemResetWarning,0835.6,5.01,000.00,030.1,026.3,000.0,038.2,030.4,34.1,0000.0,0007.86,0010.26,0007.57
2023-08-27 13:35:00,SystemResetWarning,0835.6,5.02,000.00,030.1,026.6,000.0,038.2,030.4,34.6,-000.0,0007.98,0010.46,0007.63
2023-08-27 13:36:00,SystemResetWarning,0835.6,4.98,000.00,030.1,026.8,000.0,038.3,030.5,34.8,-000.0,0008.05,0010.61,0007.66
2023-08-27 13:37:00,SystemResetWarning,0835.6,5.00,000.00,030.1,027.0,000.0,038.3,030.5,34.1,0000.0,0008.10,0010.73,0007.69
2023-08-27 13:38:00,SystemResetWarning,0835.6,5.00,000.00,030.1,027.1,000.0,038.3,030.6,34.2,-000.3,0008.16,0010.85,0007.74
2023-08-27 13:39:00,SystemResetWarning,0835.6,5.00,000.00,030.1,027.3,000.0,038.3,030.6,34.5,-000.9,0008.25,0011.14,0007.80
2023-08-27 13:40:00,SystemResetWarning,0835.6,4.99,000.00,030.2,027.4,000.0,038.3,030.7,35.1,-000.9,0008.27,0011.22,0007.83
2023-08-27 13:41:00,SystemResetWarning,0835.6,5.01,000.00,030.3,027.5,000.0,038.4,030.8,35.0,-000.8,0008.29,0011.29,0007.84
2023-08-27 13:42:00,SystemResetWarning,0835.7,4.99,000.00,030.4,027.6,000.0,038.4,030.9,34.6,-000.5,0008.38,0011.45,0007.88
2023-08-27 13:43:00,SystemResetWarning,0835.7,5.00,000.00,030.6,027.6,000.0,038.4,030.9,34.4,-000.3,0008.41,0011.44,0007.92
2023-08-27 13:44:00,SystemResetWarning,0835.6,5.01,000.00,030.6,027.7,000.0,038.5,030.9,34.7,-000.5,0008.42,0011.43,0007.94
2023-08-27 13:45:00,SystemResetWarning,0835.6,5.00,000.00,030.7,027.8,000.0,038.5,030.9,33.9,-000.7,0008.38,0011.43,0007.88
2023-08-27 13:46:00,SystemResetWarning,0835.6,4.99,000.00,030.7,027.8,000.0,038.6,031.0,34.1,-000.9,0008.31,0011.40,0007.84
2023-08-27 13:47:00,SystemResetWarning,0835.7,4.98,000.00,030.7,027.1,000.0,038.5,030.9,33.8,-000.9,0008.22,0011.24,0007.78
2023-08-27 13:48:00,SystemResetWarning,0835.6,5.01,000.00,030.7,025.4,000.0,038.4,030.6,33.8,-001.1,0008.15,0011.25,0007.73
2023-08-27 13:49:00,SystemResetWarning,0835.6,5.00,000.00,030.6,024.7,000.0,038.3,030.4,34.0,-000.6,0008.08,0011.48,0007.66
2023-08-27 13:50:00,SystemResetWarning,0835.6,5.00,000.00,030.5,024.7,000.0,038.3,030.2,34.5,-000.1,0007.99,0011.31,0007.58
2023-08-27 13:51:00,SystemResetWarning,0835.6,5.01,000.00,030.3,025.1,000.0,038.4,030.2,34.4,0000.0,0007.93,0011.36,0007.51
2023-08-27 13:52:00,SystemResetWarning,0835.8,5.00,000.00,030.2,025.5,000.0,038.4,030.3,34.7,-000.0,0007.87,0011.53,0007.46
2023-08-27 13:53:00,SystemResetWarning,0835.7,4.99,000.00,030.2,025.9,000.0,038.4,030.3,35.2,0000.2,0007.78,0011.41,0007.40
2023-08-27 13:54:00,SystemResetWarning,0835.6,5.03,000.00,030.3,026.2,000.0,038.4,030.5,34.8,0000.0,0007.69,0011.36,0007.32
2023-08-27 13:55:00,SystemResetWarning,0835.6,4.98,000.00,030.4,026.5,000.0,038.4,030.6,34.9,0000.4,0007.60,0011.28,0007.24
2023-08-27 13:56:00,SystemResetWarning,0835.6,5.00,000.00,030.6,026.7,000.0,038.4,030.7,33.9,0000.8,0007.56,0011.36,0007.20
2023-08-27 13:57:00,SystemResetWarning,0835.6,5.00,000.00,030.7,026.9,000.0,038.5,030.8,34.4,0000.9,0007.52,0011.35,0007.16
2023-08-27 13:58:00,SystemResetWarning,0835.6,5.01,000.00,030.8,027.1,000.0,038.5,030.8,33.5,0000.7,0007.45,0011.25,0007.11
2023-08-27 13:59:00,SystemResetWarning,0835.7,5.01,000.00,030.8,027.3,000.0,038.6,030.8,33.6,0000.6,0007.42,0011.22,0007.07
